DELTA 1 DEB, 42576

Orbit data source: Space-Track

DELTA 1 DEB, 42576 is space debris in SSO originally from a launch on Tue, 06 Nov 1973 UTC launched from the Air Force Western Test Range (AFWTR). Debris objects in space refer to the collection of defunct objects orbiting the Earth. Examples of debris include non-operational satellites, rocket bodies, and fragments generated from explosions, collisions, or faulty payload assembly.

Loading next visibility...
Identifier
42576, 1973-086HQ
Orbit
SSO
Country
Flag of USUS
Related business
Manufacturer
Unknown
Mission
Spacecraft
Bus & Motor
Unknown
Mass
Unknown
Launch date (UTC)
1973-11-06 (53 years ago)
Launch vehicle
Unknown
Launch site
Air Force Western Test Range (AFWTR)
Object type
Payload
Rocket body
Debris
Shape & HBR
Unknown shape, 0.1 m
Radar Cross Section
Small (<0.1 m²)

Expand to show TLE details & history
Last TLE update: 4 months ago

TLE from 4 months ago
0 DELTA 1 DEB
1 42576U 73086HQ  26142.61339868  .00000008  00000-0  22466-3 0  9998
2 42576 102.2085  19.9232 0301898   3.9827  24.2659 12.76490552582215
Epoch: 2026-05-22T14:43Z
TLE epoch observation values (Epoch: 2026-05-22T14:43:17.645Z)
Latitude
29.03213°
Longitude
-88.00387°
Altitude
1,147.289 km
Speed
7.381 km/s
True Right ascension
00h 52m 14s
True Declination
28° 53' 38"
Sunlit
Object was in daylight at epoch
Visualization orbit readout
Latitude
Unknown
Longitude
Unknown
Altitude
Unknown
Speed
Unknown
Apparent Right ascension
Unknown
Apparent Declination
Unknown
Sunlit
N/A
Visualization observer readout
Local Sidereal Time
15:11:19
Azimuth
Unknown
Elevation
Unknown
Doppler factor
Unknown
Orbital elements
Apogee altitude
1,586.555 km
Perigee altitude
1,119.743 km
Semi-major axis
7,731.286 km
Eccentricity
0.03019
Inclination
102.2085°
RAAN
19.9232°
Arg. of periapsis
3.9827°
True anomaly
25.73807°
Mean anomaly
24.2659°
Eccentric anomaly
24.99684°
Mean motion
3.19275 °/min
Orbital period
112.76 mins
BSTAR
0.00022466
Loading maneuver chart data...
Computing Atmospheric mass density...

Documentation

Showing up to 5 results
|